STARLINK-2531, 48483

Orbit data source: Space-Track

STARLINK-2531, 48483 is a payload satellite owned by SpaceX/Seattle (US) in LEO that was launched on Sun, 09 May 2021 UTC via an FALCON 9 launch vehicle from the Air Force Eastern Test Range (AFETR). Payload-class satellites include a variety of spacecraft equipped with specific instruments for various scientific and technological missions. These include communications satellites like Starlink; space stations such as the ISS; scientific satellites like the Hubble; Earth observation satellites from companies like Planet Labs, Umbra, and HawkEye 360; GPS; miniature CubeSats for education and research; and military/defense satellites.

Loading next visibility...
Identifier
48483, 2021-040BH
Orbit
LEO
Country
Flag of USUS
Related business
Manufacturer
SpaceX/Seattle
Mission
Operational Commercial Communications
Bus & Motor
STARLINK, Unknown motor
Mass
260 kg wet, ~248 kg dry
Launch date (UTC)
2021-05-09 (5 years ago)
Launch vehicle
FALCON 9
Launch site
Air Force Eastern Test Range (AFETR)
Object type
Payload
Rocket body
Debris
Shape & HBR
Box + 1 Pan, 10.1 m
Radar Cross Section
13.562 m², Large (>1 m²)

Expand to show TLE details & history
Last TLE update: 2 days ago

TLE from 2 days ago
0 STARLINK-2531
1 48483U 21040BH  26171.45499604 -.00001510  00000-0 -36913-4 0  9997
2 48483  53.1596  75.9982 0001350  92.3685 267.7471 15.31681301282207
Epoch: 2026-06-20T10:55Z
TLE epoch observation values (Epoch: 2026-06-20T10:55:11.657Z)
Latitude
-0.00004°
Longitude
3.53022°
Altitude
471.732 km
Speed
7.631 km/s
True Right ascension
05h 03m 59s
True Declination
0° 00' 00"
Sunlit
Object was in daylight at epoch
Visualization orbit readout
Latitude
Unknown
Longitude
Unknown
Altitude
Unknown
Speed
Unknown
Apparent Right ascension
Unknown
Apparent Declination
Unknown
Sunlit
N/A
Visualization observer readout
Local Sidereal Time
21:33:19
Azimuth
Unknown
Elevation
Unknown
Doppler factor
Unknown
Orbital elements
Apogee altitude
471.977 km
Perigee altitude
470.128 km
Semi-major axis
6,849.189 km
Eccentricity
0.00014
Inclination
53.1596°
RAAN
75.9982°
Arg. of periapsis
92.3685°
True anomaly
267.73164°
Mean anomaly
267.7471°
Eccentric anomaly
267.73937°
Mean motion
3.82899 °/min
Orbital period
94.02 mins
BSTAR
-0.000036913
Loading maneuver chart data...
Computing Atmospheric mass density...

Documentation

Showing up to 5 results
|